When you browse on this site, cookies collect data to enhance your experience and personalize the content and advertising you see.
Visit our Privacy Policy to learn more. By continuing to use the site, you agree to this use of cookies and data.
  • In Hungary
  • List of Countries
  • For 7 days
  • Water Temperature
  • Satellite Maps
  • Weather Map
  • News
  • Weather Widgets
  • user-avatar
    Login

    Hourly Weather Trikala

    Today, 13 December, Thursday

    Time Temperature Precipitation Wind Pressure Humidity
    00:00 +5°C° 0 mm 1 mps 755 mmHg 57%
    01:00 +6°C° 0 mm 1 mps 755 mmHg 55%
    02:00 +6°C° 0 mm 1 mps 755 mmHg 56%
    03:00 +6°C° 0 mm 1 mps 755 mmHg 57%
    04:00 +6°C° 0 mm 1 mps 754 mmHg 59%
    05:00 +6°C° 0.2 mm 1 mps 754 mmHg 62%
    06:00 +6°C° 0.2 mm 1 mps 754 mmHg 66%
    07:00 +6°C° 0.2 mm 1 mps 754 mmHg 70%
    08:00 +6°C° 0.5 mm 1 mps 754 mmHg 71%
    09:00 +6°C° 0.5 mm 1 mps 754 mmHg 71%
    10:00 +7°C° 0.5 mm 1 mps 753 mmHg 72%
    11:00 +7°C° 0.5 mm 1 mps 753 mmHg 74%
    12:00 +7°C° 0.5 mm 1 mps 753 mmHg 76%
    13:00 +7°C° 0 mm 1 mps 753 mmHg 77%
    14:00 +7°C° 0.3 mm 1 mps 753 mmHg 79%
    15:00 +7°C° 0.3 mm 1 mps 753 mmHg 82%
    16:00 +6°C° 0.3 mm 1 mps 753 mmHg 84%
    17:00 +6°C° 0.2 mm 1 mps 753 mmHg 85%
    18:00 +6°C° 0.2 mm 1 mps 753 mmHg 86%
    19:00 +6°C° 0.2 mm 1 mps 752 mmHg 87%
    20:00 +6°C° 0.2 mm 1 mps 752 mmHg 87%
    21:00 +6°C° 0.2 mm 1 mps 752 mmHg 88%
    22:00 +6°C° 0.2 mm 1 mps 752 mmHg 88%
    23:00 +6°C° 0.2 mm 1 mps 752 mmHg 89%

    Tomorrow, 14 December, Friday

    Time Temperature Precipitation Wind Pressure Humidity
    00:00 +7°C° 0.2 mm 1 mps 752 mmHg 89%
    01:00 +7°C° 0.2 mm 1 mps 752 mmHg 90%
    02:00 +7°C° 0.1 mm 1 mps 752 mmHg 91%
    03:00 +7°C° 0.1 mm 1 mps 752 mmHg 91%
    04:00 +7°C° 0.1 mm 1 mps 752 mmHg 92%
    05:00 +7°C° 0 mm 1 mps 752 mmHg 92%
    06:00 +7°C° 0 mm 1 mps 752 mmHg 92%
    07:00 +8°C° 0 mm 1 mps 752 mmHg 92%
    08:00 +9°C° 0.1 mm 1 mps 752 mmHg 89%
    09:00 +10°C° 0.1 mm 1 mps 752 mmHg 87%
    10:00 +11°C° 0.1 mm 1 mps 752 mmHg 85%
    11:00 +12°C° 0.1 mm 1 mps 752 mmHg 83%
    12:00 +13°C° 0.1 mm 2 mps 752 mmHg 80%
    13:00 +14°C° 0.1 mm 2 mps 751 mmHg 78%
    14:00 +13°C° 0 mm 2 mps 751 mmHg 81%
    15:00 +12°C° 0 mm 1 mps 751 mmHg 84%
    16:00 +11°C° 0 mm 1 mps 751 mmHg 87%
    17:00 +11°C° 0 mm 1 mps 752 mmHg 88%
    18:00 +10°C° 0 mm 1 mps 752 mmHg 89%
    19:00 +10°C° 0 mm 1 mps 752 mmHg 90%
    20:00 +10°C° 0 mm 1 mps 752 mmHg 90%
    21:00 +10°C° 0 mm 1 mps 752 mmHg 90%
    22:00 +10°C° 0 mm 1 mps 752 mmHg 89%
    23:00 +10°C° 0 mm 1 mps 752 mmHg 90%

    Day after tomorrow, 15 December, Saturday

    Time Temperature Precipitation Wind Pressure Humidity
    00:00 +10°C° 0 mm 1 mps 752 mmHg 90%
    01:00 +10°C° 0 mm 1 mps 752 mmHg 90%
    02:00 +10°C° 0 mm 1 mps 751 mmHg 91%
    03:00 +10°C° 0 mm 1 mps 751 mmHg 91%
    04:00 +10°C° 0 mm 1 mps 751 mmHg 91%
    05:00 +10°C° 0.1 mm 1 mps 751 mmHg 91%
    06:00 +10°C° 0.1 mm 1 mps 751 mmHg 91%
    07:00 +10°C° 0.1 mm 1 mps 751 mmHg 91%
    08:00 +11°C° 0.2 mm 1 mps 751 mmHg 89%
    09:00 +12°C° 0.2 mm 1 mps 751 mmHg 87%
    10:00 +13°C° 0.2 mm 1 mps 751 mmHg 85%
    11:00 +13°C° 0.2 mm 1 mps 750 mmHg 84%
    12:00 +13°C° 0.2 mm 1 mps 750 mmHg 83%
    13:00 +14°C° 0.2 mm 1 mps 749 mmHg 82%
    14:00 +13°C° 0 mm 1 mps 749 mmHg 85%
    15:00 +13°C° 0 mm 1 mps 749 mmHg 87%
    16:00 +12°C° 0 mm 1 mps 748 mmHg 90%
    17:00 +12°C° 0 mm 1 mps 748 mmHg 90%
    18:00 +11°C° 0 mm 1 mps 748 mmHg 91%
    19:00 +11°C° 0 mm 1 mps 748 mmHg 92%
    20:00 +10°C° 0 mm 1 mps 748 mmHg 91%
    21:00 +10°C° 0 mm 1 mps 748 mmHg 91%
    22:00 +10°C° 0 mm 1 mps 748 mmHg 91%
    23:00 +10°C° 0 mm 1 mps 748 mmHg 91%

    16 December, Sunday

    Time Temperature Precipitation Wind Pressure Humidity
    00:00 +10°C° 0 mm 1 mps 748 mmHg 91%
    01:00 +10°C° 0 mm 1 mps 748 mmHg 92%
    02:00 +9°C° 0 mm 1 mps 748 mmHg 92%
    03:00 +9°C° 0 mm 1 mps 747 mmHg 92%
    04:00 +9°C° 0 mm 1 mps 747 mmHg 92%
    05:00 +9°C° 0 mm 1 mps 747 mmHg 92%
    06:00 +9°C° 0 mm 1 mps 748 mmHg 92%
    07:00 +10°C° 0 mm 1 mps 748 mmHg 91%
    08:00 +11°C° 0.1 mm 1 mps 748 mmHg 88%
    09:00 +12°C° 0.1 mm 1 mps 748 mmHg 85%
    10:00 +12°C° 0.1 mm 0 mps 748 mmHg 82%
    11:00 +13°C° 0.2 mm 1 mps 748 mmHg 80%
    12:00 +13°C° 0.2 mm 1 mps 748 mmHg 78%
    13:00 +14°C° 0.2 mm 1 mps 747 mmHg 77%
    14:00 +13°C° 0.4 mm 1 mps 748 mmHg 80%
    15:00 +13°C° 0.4 mm 1 mps 748 mmHg 83%
    16:00 +12°C° 0.4 mm 1 mps 748 mmHg 86%
    17:00 +12°C° 0.2 mm 1 mps 749 mmHg 87%
    18:00 +11°C° 0.2 mm 1 mps 750 mmHg 88%
    19:00 +11°C° 0.2 mm 1 mps 750 mmHg 89%
    20:00 +11°C° 0.2 mm 1 mps 751 mmHg 89%
    21:00 +11°C° 0.2 mm 1 mps 751 mmHg 88%
    22:00 +10°C° 0.2 mm 1 mps 752 mmHg 88%
    23:00 +10°C° 0.1 mm 1 mps 752 mmHg 88%

    17 December, Monday

    Time Temperature Precipitation Wind Pressure Humidity
    00:00 +10°C° 0.1 mm 1 mps 752 mmHg 88%
    01:00 +10°C° 0.1 mm 1 mps 752 mmHg 88%
    02:00 +10°C° 0 mm 1 mps 752 mmHg 87%
    03:00 +10°C° 0 mm 1 mps 752 mmHg 86%
    04:00 +10°C° 0 mm 1 mps 752 mmHg 86%
    05:00 +10°C° 0 mm 1 mps 753 mmHg 86%
    06:00 +9°C° 0 mm 0 mps 753 mmHg 86%
    07:00 +9°C° 0 mm 0 mps 753 mmHg 86%
    08:00 +10°C° 0 mm 0 mps 753 mmHg 83%
    09:00 +10°C° 0 mm 0 mps 754 mmHg 81%
    10:00 +11°C° 0 mm 0 mps 754 mmHg 78%
    11:00 +12°C° 0 mm 0 mps 754 mmHg 76%
    12:00 +14°C° 0 mm 1 mps 753 mmHg 74%
    13:00 +14°C° 0 mm 1 mps 753 mmHg 71%
    14:00 +14°C° 0 mm 1 mps 753 mmHg 75%
    15:00 +13°C° 0 mm 1 mps 753 mmHg 79%
    16:00 +12°C° 0 mm 1 mps 753 mmHg 82%
    17:00 +11°C° 0 mm 1 mps 754 mmHg 84%
    18:00 +11°C° 0 mm 1 mps 754 mmHg 87%
    19:00 +10°C° 0 mm 1 mps 754 mmHg 89%
    20:00 +10°C° 0 mm 1 mps 754 mmHg 89%
    21:00 +10°C° 0 mm 1 mps 754 mmHg 89%
    22:00 +10°C° 0 mm 1 mps 754 mmHg 88%
    23:00 +10°C° 0.2 mm 1 mps 754 mmHg 88%

    18 December, Tuesday

    Time Temperature Precipitation Wind Pressure Humidity
    00:00 +10°C° 0.2 mm 1 mps 754 mmHg 87%
    01:00 +10°C° 0.2 mm 1 mps 754 mmHg 87%
    02:00 +10°C° 0.8 mm 1 mps 754 mmHg 88%
    03:00 +10°C° 0.8 mm 1 mps 753 mmHg 89%
    04:00 +10°C° 0.8 mm 1 mps 753 mmHg 91%
    05:00 +10°C° 1.3 mm 1 mps 753 mmHg 91%
    06:00 +10°C° 1.3 mm 1 mps 753 mmHg 92%
    07:00 +10°C° 1.3 mm 1 mps 752 mmHg 93%
    08:00 +10°C° 1.5 mm 1 mps 752 mmHg 92%
    09:00 +10°C° 1.5 mm 1 mps 753 mmHg 91%
    10:00 +9°C° 1.5 mm 2 mps 753 mmHg 91%
    11:00 +9°C° 1.3 mm 2 mps 752 mmHg 90%
    12:00 +9°C° 1.3 mm 2 mps 752 mmHg 89%
    13:00 +9°C° 1.3 mm 2 mps 751 mmHg 87%
    14:00 +8°C° 0.9 mm 3 mps 751 mmHg 87%
    15:00 +8°C° 0.9 mm 3 mps 752 mmHg 87%
    16:00 +7°C° 0.9 mm 3 mps 752 mmHg 86%
    17:00 +7°C° 0.9 mm 3 mps 752 mmHg 86%
    18:00 +7°C° 0.9 mm 3 mps 753 mmHg 86%
    19:00 +7°C° 0.9 mm 3 mps 753 mmHg 86%
    20:00 +5°C° 0.5 mm 3 mps 754 mmHg 85%
    21:00 +5°C° 0.5 mm 3 mps 754 mmHg 85%
    22:00 +5°C° 0.5 mm 3 mps 755 mmHg 85%
    23:00 +5°C° 0.1 mm 3 mps 755 mmHg 85%
    Show more